Regional Weather Roundup
Issued by NWS

Home | Current Version | Previous Version | Graphics & Text | Print | Product List | Glossary On
Versions: 1 2 3 4 5 6 7 8 9 10 11 12 13 14 15 16 17 18 19 20 21 22 23 24 25 26 27 28 29 30 31 32 33 34 35 36 37 38 39 40 41 42 43 44 45 46 47 48 49 50
000
ASUS43 KDMX 191507
RWRIA

WEATHER ROUNDUP FOR IOWA
NATIONAL WEATHER SERVICE DES MOINES IA
1000 AM CDT SUN OCT 19 2014

NOTE: "FAIR" INDICATES FEW OR NO CLOUDS BELOW 12,000 FEET WITH NO
SIGNIFICANT WEATHER AND/OR OBSTRUCTIONS TO VISIBILITY.

* - THESE STATIONS ARE NOT NWS STATIONS...THUS NOT UNDER NWS
QUALITY CONTROL.  THEY ALSO DO NOT REPORT WEATHER SUCH
AS PRECIPITATION OR FOG.

IAZ001>003-012>014-020>022-031>034-043>046-191600-
   NORTHWEST IOWA

CITY           SKY/WX    TMP DP  RH WIND       PRES   REMARKS
CARROLL *      SUNNY     54  43  66 SW20G28   30.04F
CHEROKEE *     PTSUNNY   52  45  76 SW17G23   30.00S
DENISON *      SUNNY     52  45  76 SW16G22   30.03F
LE MARS *      SUNNY     50  43  76 S13       29.99F
ORANGE CITY *  SUNNY     52  43  71 SW16G23   29.97F
SHELDON *      SUNNY     50  41  71 SW18      29.96S
SIOUX CITY     PTSUNNY   56  43  61 S9        30.01F
SPENCER        CLOUDY    52  42  69 SW20G30   29.96F
STORM LAKE *   SUNNY     52  43  71 SW17G25   30.01F
$$

IAZ055>058-069>071-079>083-090>094-191600-
   SOUTHWEST IOWA

CITY           SKY/WX    TMP DP  RH WIND       PRES   REMARKS
ATLANTIC *     SUNNY     50  45  81 S13       30.09F
AUDUBON *      SUNNY     52  43  71 S13G18    30.08F
CLARINDA *     SUNNY     50  46  87 S9        30.14F
COUNCIL BLFS * SUNNY     50  46  87 SW15G22   30.07F
CRESTON *      SUNNY     50  45  81 SW14G20   30.12F
HARLAN  *      SUNNY     48  46  93 S9        30.11F
LAMONI         SUNNY     50  45  83 S10       30.14F
RED OAK *      SUNNY     50  46  87 S9        30.11F
$$

IAZ047>049-059>061-072>074-084-191600-
   CENTRAL IOWA

CITY           SKY/WX    TMP DP  RH WIND       PRES   REMARKS
AMES           MOSUNNY   50  44  80 S12       30.09F
ANKENY *       SUNNY     50  45  81 S10       30.11S
CHARITON *     SUNNY     50  45  81 S14       30.13F
DES MOINES     MOSUNNY   50  44  80 S14       30.11F
GRINNELL*      SUNNY     46  43  87 S9        30.13F
KNOXVILLE *    SUNNY     50  45  81 S13       30.12F HAZE
MARSHALLTOWN   MOSUNNY   49  43  80 S14G22    30.09F
PELLA *        SUNNY     50  45  81 SW9       30.14F
PERRY *          N/A     52  45  76 S12       30.08F
$$

IAZ004>006-015-016-023>025-035-036-191600-
   NORTH CENTRAL IOWA

CITY           SKY/WX    TMP DP  RH WIND       PRES   REMARKS
ALGONA *       SUNNY     48  43  81 SW18      30.00F
CLARION *      SUNNY     46  46 100 SW12G17   30.04S
ESTHERVILLE    PTSUNNY   51  42  71 SW13G21   29.96S
FORT DODGE *   MOSUNNY   48  41  76 SW14G21   30.04S
MASON CITY     CLOUDY    49  43  80 S17G23    30.02F
FOREST CITY *  SUNNY     46  43  87 SW12G17   30.00F
IOWA FALLS *     N/A     48  43  81 S14       30.06F
$$

IAZ007>011-017>019-026>030-037>042-050>054-066-191600-
   NORTHEAST IOWA

CITY           SKY/WX    TMP DP  RH WIND       PRES   REMARKS
CEDAR RAPIDS   SUNNY     47  43  86 SW12      30.14F
CHARLES CITY * SUNNY     46  43  87 S15       30.05F
CLINTON *      MOSUNNY   46  43  87 SW10      30.21F
DECORAH *      SUNNY     46  41  81 S8G16     30.05F
DUBUQUE        SUNNY     43  41  93 SW13      30.14F
MONTICELLO *   SUNNY     46  43  87 S12       30.14F
OELWEIN *      SUNNY     46  43  87 SW18      30.10F
WATERLOO       PTSUNNY   48  42  80 S13G21    30.09F
$$

IAZ064-065-067-068-078-191600-
   EAST CENTRAL IOWA

CITY           SKY/WX    TMP DP  RH WIND       PRES   REMARKS
DAVENPORT      SUNNY     48  41  76 SW10      30.18F
IOWA CITY      SUNNY     47  43  86 S8        30.18F
MT. PLEASANT * SUNNY     48  45  87 S8        30.19F
MUSCATINE *    SUNNY     48  43  81 SW10      30.18F
QUAD CITIES    SUNNY     48  42  80 SW6       30.19F
$$

IAZ062-063-075>077-085>089-095>099-191600-
   SOUTHEAST IOWA

CITY           SKY/WX    TMP DP  RH WIND       PRES   REMARKS
BURLINGTON     SUNNY     48  44  86 S9        30.20S
FAIRFIELD *    SUNNY     50  43  76 SW10      30.17F
FORT MADISON * SUNNY     52  45  76 S8        30.21S
KEOKUK *       SUNNY     48  45  87 SW7       30.20S
OSKALOOSA *      N/A     48  43  81 SW10      30.15F
CENTERVILLE *  SUNNY     50  46  87 S8        30.17F
OTTUMWA        SUNNY     50  44  80 SW10      30.16S
WASHINGTON *   SUNNY     48  46  93 SW8       30.17F
$$

ABBREVIATIONS USED IN REMARKS
   TC - TEMPERATURES IN CELSIUS
  WCI - WIND CHILL INDEX
   HX - HEAT INDEX
  VSB - VISIBILITY
$$



USA.gov is the U.S. government's official web portal to all federal, state and local government web resources and services.